Miamisburg, OH

5:14 PM EST on February 26, 2017 (GMT -0500)
Dayton-Wright Brothers

Weather History for KMGY - October, 2012

Change the Weather History Date:

Monday, October 1, 2012

  Actual Average (KFFO) Record (KFFO)
Temperature  
Mean Temperature 56 °F -  
Max Temperature 66 °F 68 °F 82 °F (2002)
Min Temperature 48 °F 45 °F 37 °F (1998)
Degree Days  
Heating Degree Days 9    
Growing Degree Days 6 (Base 50)    
Moisture  
Dew Point 50 °F    
Average Humidity 82    
Maximum Humidity 100    
Minimum Humidity 54    
Precipitation  
Precipitation 0.69 in - - ()
Sea Level Pressure  
Sea Level Pressure 29.79 in    
Wind  
Wind Speed 9 mph (ENE)    
Max Wind Speed 13 mph    
Max Gust Speed 21 mph    
Visibility 8 miles    
Events Rain    
Averages and records for this station are not official NWS values.
T = Trace of Precipitation, MM = Missing Value Source: NWS Daily Summary

Daily Weather History Graph

Daily Weather History Graph

Search for Another Location

Airport or City:

Trip Planner

Search our weather history database for the weather conditions in past years. The results will help you decide how hot, cold, wet, or windy it might be!

Date:

Astronomy

Oct. 01, 2012 Rise Set
Actual Time 7:33 AM EDT 7:18 PM EDT
Civil Twilight 7:06 AM EDT 7:45 PM EDT
Nautical Twilight 6:35 AM EDT 8:16 PM EDT
Astronomical Twilight 6:03 AM EDT 8:47 PM EDT
Moon 7:55 PM EDT (10/1) 9:01 AM EDT (10/1)
Length of Visible Light 12h 38m
Length of Day
11h 45m
Full, 98% of the Moon is Illuminated
Oct 1
Full
Oct 8
Last Quarter
Oct 15
New
Oct 21
First Quarter
Oct 29
Full

Hourly Weather History & Observations

Time (EDT) Temp. Dew Point Humidity Pressure Visibility Wind Dir Wind Speed Gust Speed Precip Events Conditions
12:53 AM 53.1 °F 45.0 °F 74% 29.91 in 10.0 mi ENE 6.9 mph - N/A   Clear
2:53 AM 51.1 °F 46.0 °F 83% 29.89 in 10.0 mi ENE 6.9 mph - N/A   Clear
3:53 AM 50.0 °F 45.0 °F 83% 29.87 in 10.0 mi ENE 5.8 mph - N/A   Clear
4:53 AM 48.9 °F 46.0 °F 90% 29.86 in 10.0 mi ENE 8.1 mph - N/A   Clear
5:53 AM 48.9 °F 46.0 °F 90% 29.85 in 10.0 mi ENE 9.2 mph - N/A   Clear
6:53 AM 48.9 °F 45.0 °F 86% 29.86 in 10.0 mi ENE 9.2 mph - N/A   Clear
8:53 AM 51.1 °F 46.9 °F 86% 29.87 in 10.0 mi ENE 10.4 mph - N/A   Clear
9:53 AM 54.0 °F 46.9 °F 77% 29.87 in 10.0 mi ENE 9.2 mph - N/A   Clear
10:53 AM 57.0 °F 48.0 °F 72% 29.88 in 10.0 mi ENE 8.1 mph - N/A   Clear
11:53 AM 60.1 °F 48.9 °F 67% 29.86 in 10.0 mi ENE 11.5 mph - N/A   Clear
12:53 PM 61.0 °F 48.0 °F 62% 29.83 in 10.0 mi East 10.4 mph - N/A   Overcast
1:53 PM 63.0 °F 46.9 °F 56% 29.82 in 10.0 mi East 11.5 mph - N/A   Overcast
2:53 PM 64.0 °F 48.0 °F 56% 29.79 in 10.0 mi East 12.7 mph 18.4 mph N/A   Overcast
3:53 PM 64.9 °F 48.9 °F 56% 29.78 in 10.0 mi East 6.9 mph - N/A   Overcast
4:53 PM 64.9 °F 48.0 °F 54% 29.76 in 10.0 mi ENE 12.7 mph 20.7 mph N/A   Overcast
5:53 PM 64.0 °F 48.0 °F 56% 29.75 in 10.0 mi ENE 10.4 mph - N/A   Overcast
6:53 PM 59.0 °F 51.1 °F 75% 29.76 in 6.0 mi East 6.9 mph - 0.02 in Rain Light Rain
7:53 PM 55.9 °F 54.0 °F 93% 29.73 in 8.0 mi ENE 6.9 mph - 0.19 in Rain Light Rain
8:00 PM 55.4 °F 53.6 °F 94% 29.73 in 9.0 mi ENE 8.1 mph - 0.00 in Rain Light Rain
8:53 PM 55.9 °F 54.0 °F 93% 29.72 in 7.0 mi ENE 12.7 mph - 0.02 in Rain Light Rain
9:18 PM 55.4 °F 53.6 °F 94% 29.73 in 4.0 mi NNE 9.2 mph - 0.06 in Rain Rain
9:23 PM 55.4 °F 55.4 °F 100% 29.74 in 2.5 mi NNE 12.7 mph 19.6 mph 0.09 in Rain Rain
9:27 PM 55.4 °F 53.6 °F 94% 29.74 in 2.5 mi NNE 9.2 mph 19.6 mph 0.11 in Rain Heavy Rain
9:43 PM 55.4 °F 53.6 °F 94% 29.73 in 1.5 mi NE 11.5 mph - 0.29 in Rain Heavy Rain
9:53 PM 55.0 °F 54.0 °F 96% 29.74 in 2.0 mi NE 11.5 mph - 0.37 in Rain Heavy Rain
10:06 PM 53.6 °F 53.6 °F 100% 29.74 in 2.5 mi NE 11.5 mph - 0.08 in Rain Rain
10:14 PM 55.4 °F 53.6 °F 94% 29.74 in 5.0 mi NE 11.5 mph - 0.08 in Rain Light Rain
10:29 PM 53.6 °F 53.6 °F 100% 29.73 in 4.0 mi NE 12.7 mph - 0.08 in Rain Light Rain
10:53 PM 54.0 °F 54.0 °F 100% 29.72 in 6.0 mi NE 12.7 mph - 0.09 in   Overcast